Regional Weather Roundup
Issued by NWS Upton, NY

Current Version | Previous Version | Graphics & Text | Print | Product List | Glossary Off
Versions: 1 2 3 4 5 6 7 8 9 10 11 12 13 14 15 16 17 18 19 20 21 22 23 24 25 26 27 28 29 30 31 32 33 34 35 36 37 38 39 40 41 42 43 44 45 46 47 48 49 50

000
ASUS41 KOKX 011304
RWROKX

REGIONAL WEATHER ROUNDUP
NATIONAL WEATHER SERVICE NEW YORK NY
900 AM EDT SAT OCT 01 2016

NOTE: "FAIR" INDICATES FEW OR NO CLOUDS BELOW 12,000 FEET WITH NO
SIGNIFICANT WEATHER AND/OR OBSTRUCTIONS TO VISIBILITY.

NYZ071-072-176-178-NJZ106-104-011400-
NEW YORK CITY METRO AREA

CITY           SKY/WX    TMP DP  RH WIND       PRES   REMARKS
Central Park   CLOUDY    58  54  86 NE8       30.25S
LaGuardia APRT DRIZZLE   59  56  89 NE10      30.22S FOG
Kennedy INTL   CLOUDY    60  56  86 NE14      30.22S
Newark/Liberty DRIZZLE   58  56  93 N10       30.22S
Bronx Bot Gard   N/A     57  54  88 N5        30.24R
Wall St Helipt CLOUDY    61  57  88 NE12G18   30.23R
Teterboro      DRIZZLE   58  55  90 N6        30.23R FOG
$$

NYZ177-179-078>081-011400-
LONG ISLAND NEW YORK

CITY           SKY/WX    TMP DP  RH WIND       PRES   REMARKS
Farmingdale    CLOUDY    58  56  93 NE13      30.22R
MacArthur/ISP  DRIZZLE   58  57  97 N13       30.21S FOG
Shirley        CLOUDY    60  60 100 VRB6      30.21S FOG
Riverhead      NOT AVBL
Westhampton    LGT RAIN  61  58  90 NE18      30.22R
Southampton      N/A     61  59  94 NE10      30.17R
Bridgehampton    N/A     59  57  94 E5        30.06S
East Hampton   CLOUDY    60  58  92 NE9G20    30.20S FOG
Montauk          N/A     62  59  90 NE14G25   30.21S
$$

NYZ052-065-067-011400-
HUDSON VALLEY

CITY           SKY/WX    TMP DP  RH WIND       PRES   REMARKS
White Plains   DRIZZLE   56  54  93 NE9       30.23S FOG
Newburgh       DRIZZLE   52  52 100 CALM      30.28R FOG
Montgomery     LGT RAIN  53  52  96 NE9       30.27R FOG
Poughkeepsie   CLOUDY    51  50  96 N7        30.27S FOG
Albany         CLOUDY    52  48  86 NW5       30.32R
$$

NJZ001-105-106-008-010-013-015-019>022-104-011400-
NEW JERSEY

CITY           SKY/WX    TMP DP  RH WIND       PRES   REMARKS
Newark/Liberty DRIZZLE   58  56  93 N10       30.22S
Teterboro      DRIZZLE   58  55  90 N6        30.23R FOG
Caldwell       CLOUDY    56  55  97 VRB6      30.24S FOG
Morristown     CLOUDY    55  55 100 NE12      30.24S FOG
Somerville     CLOUDY    58  54  86 VRB7      30.21S
Linden         NOT AVBL
Sussex         CLOUDY    53  52  96 NE10      30.26S FOG
Abdover          N/A     53  51  93 VRB7      30.25R
Trenton        CLOUDY    57  55  93 NE9       30.20S FOG
Millville      CLOUDY    62  62 100 NE9       30.17S FOG
Atlantic City  CLOUDY    63  61  93 NE14G21   30.16S FOG
Wrightstown    NOT AVBL
Toms River     LGT RAIN  61  60  97 NE12      30.19F FOG
Belmar         CLOUDY    59  58  96 NE10      30.21S FOG
$$

PAZ047>061-062-071-011400-
EASTERN PENNSYLVANIA

CITY           SKY/WX    TMP DP  RH WIND       PRES   REMARKS
Philadelphia   CLOUDY    59  56  89 NE10      30.19S
Allentown      CLOUDY    56  52  86 NE10      30.23R
Scranton       CLOUDY    57  52  83 NE8       30.21F
$$

CTZ002-004>006-009-010-012-RIZ004-006-007-MAZ004-011-015-011400-
SOUTHERN NEW ENGLAND
 IN CT

CITY           SKY/WX    TMP DP  RH WIND       PRES   REMARKS
Bradley INTL   DRIZZLE   50  48  93 N9        30.30R FOG
Hartford       CLOUDY    50  50 100 N7G18     30.28R FOG
Danbury        CLOUDY    54  53  97 NE8       30.27S FOG
Wtrbury/Oxford CLOUDY    52  48  87 NE14G20   30.26S
Bridgeport     CLOUDY    58  52  80 NE12      30.24R
Meriden        CLOUDY    53  49  86 N9        30.27R FOG
New Haven      CLOUDY    53  51  93 N15       30.24R
Chester        CLOUDY    57  55  94 N9        30.24S FOG
Groton         CLOUDY    63  58  83 NE16      30.21S
Wilimantic     CLOUDY    57  56  96 NE8       30.27S

 IN RI

CITY           SKY/WX    TMP DP  RH WIND       PRES   REMARKS
Providence     LGT RAIN  58  56  93 N13       30.26S
Block Island   CLOUDY    60  59  96 NE14G28   30.21S
Westerly       CLOUDY    60  56  86 NE12G21   30.23S
 IN MA

CITY           SKY/WX    TMP DP  RH WIND       PRES   REMARKS
Boston         HVY RAIN  56  56 100 NE15      30.31S FOG
Worcester      LGT RAIN  50  49  96 NE13G22   30.30R VSB 1/4
Westfield      CLOUDY    49  48  97 N15       30.31R FOG
Provincetown   NOT AVBL
Nantucket      RAIN      62  60  93 E16G28    30.18R FOG
$$

ANZ330-335-338-340-345-350-353-355-011400-
COASTAL MARINE OBSERVATIONS


STATION/POSITION TIME  SKY/WX   TEMP    WIND        PRES    VSBY  WAVE
                                AIR SEA DIR/SP/G                  HT/PER
                 (UTC)          (F)     (DEG/KT/KT) (MB)    (MI)  (FT/S)
NY HARB ENTRANCE 1150            61 68   30/ 19/ 21 1021.9          6/ 9
20S FIRE ISLAND  1150            63 67   40/ 21/ 25 1020.9          9/ 8
GREAT SOUTH BAY  1230            60 64   20/ 10/ 12   N/A
23 SSW MONTAUK P 1150            62 66   40/ 23/ 31 1021.2          9/ 7
15 E BARNEGAT LI 1200               69                N/A           9/ 8
HUDSON CANYON    1150            68 71              1019.8          7/ 9
KINGS POINT      1230            58 67              1023.2
EXECUTION ROCKS  1230            60      40/ 16/ 19   N/A
CENTRAL LI SOUND NOT AVBL
EASTERN LI SOUND NOT AVBL
ROBBINS REEF     1230            59      30/ 12/ 15 1023.4
$$


>>>>>>>>>>>>>>>>>>>>>>>>>>>> KEY <<<<<<<<<<<<<<<<<<<<<<<<<<<
>                                                          <
>     SKY/WX - Sky Condition/Present Weather               <
>     TMP    - Temperature in Fahrenheit                   <
>     DP     - Dew Point in Fahrenheit                     <
>     RH     - Relative Humidity in Percent                <
>     WIND   - Direction (from) and Speed in MPH           <
>     PRES   - Mean Sea Level Pressure (inches of Hg)      <
>     WCI    - Wind Chill Index                            <
>     VSB    - VISIBILITY IN MILES                         <
>     HX     - HEAT INDEX                                  <
>     TC     - TEMPERATURE IN CELSIUS                      <
>     VRB    - VARIABLE WIND DIRECTION                     <
>                                                          <
>>>>>>>>>>>>>>>>>>>>>>>>>>>> KEY <<<<<<<<<<<<<<<<<<<<<<<<<<<




USA.gov is the U.S. government's official web portal to all federal, state and local government web resources and services.